RYR2382 EPKT-LIPH

Flight info

Callsign RYR2382
Flight time 1h 32m
Altitude 36000
Route TUSIN DCT MIKOV DCT DETSA DCT BAKOR N503 VIC
Aircraft B738/M-SDE2E3FGHIRWXY/LB1

Departure

Time 2026-04-12 09:34
Airport Katowice Wojciech Korfanty International Airport (EPKT)

Arrival

Time 2026-04-12 11:07
Airport Treviso Airport (LIPH)
Time Latitude Longitude Altitude Speed Heading
2026-04-12 08:35 50.47183 19.07212 997 ft 0 kts 180°
2026-04-12 09:22 50.47184 19.07212 997 ft 2 kts 180°
2026-04-12 09:23 50.47210 19.07212 1000 ft 4 kts 180°
2026-04-12 09:23 50.47231 19.07215 998 ft 4 kts 237°
2026-04-12 09:23 50.47235 19.07242 997 ft 4 kts 270°
2026-04-12 09:23 50.47235 19.07282 997 ft 2 kts 270°
2026-04-12 09:24 50.47235 19.07285 997 ft 1 kts 270°
2026-04-12 09:29 50.47235 19.07284 997 ft 1 kts 270°
2026-04-12 09:29 50.47235 19.07248 998 ft 7 kts 270°
2026-04-12 09:29 50.47235 19.07131 1002 ft 14 kts 270°
2026-04-12 09:29 50.47236 19.06979 997 ft 14 kts 270°
2026-04-12 09:30 50.47236 19.06833 997 ft 13 kts 270°
2026-04-12 09:30 50.47236 19.06692 999 ft 13 kts 274°
2026-04-12 09:30 50.47301 19.06625 998 ft 13 kts
2026-04-12 09:30 50.47388 19.06622 999 ft 12 kts 347°
2026-04-12 09:31 50.47428 19.06514 996 ft 13 kts 271°
2026-04-12 09:31 50.47428 19.06353 994 ft 16 kts 270°
2026-04-12 09:31 50.47429 19.06175 993 ft 16 kts 270°
2026-04-12 09:31 50.47442 19.06005 992 ft 16 kts 309°
2026-04-12 09:32 50.47501 19.05978 992 ft 0 kts
2026-04-12 09:32 50.47506 19.05978 997 ft 2 kts
2026-04-12 09:33 50.47537 19.05979 995 ft 5 kts
2026-04-12 09:33 50.47574 19.05980 995 ft 5 kts
2026-04-12 09:33 50.47601 19.06013 995 ft 6 kts 67°
2026-04-12 09:33 50.47604 19.06083 994 ft 9 kts 91°
2026-04-12 09:34 50.47603 19.06325 994 ft 50 kts 90°
2026-04-12 09:34 50.47601 19.07242 1001 ft 116 kts 90°
2026-04-12 09:34 50.47593 19.08810 1017 ft 168 kts 91°
2026-04-12 09:34 50.47599 19.10680 1737 ft 168 kts 92°
2026-04-12 09:35 50.47588 19.12510 2620 ft 170 kts 94°
2026-04-12 09:35 50.47587 19.14502 2973 ft 197 kts 94°
2026-04-12 09:35 50.47498 19.16738 3292 ft 210 kts 107°
2026-04-12 09:35 50.46935 19.18819 3945 ft 209 kts 121°
2026-04-12 09:36 50.45951 19.20636 4216 ft 232 kts 140°
2026-04-12 09:36 50.44601 19.22193 4649 ft 248 kts 158°
2026-04-12 09:36 50.42867 19.22498 5274 ft 254 kts 186°
2026-04-12 09:36 50.41080 19.22277 5995 ft 263 kts 183°
2026-04-12 09:37 50.39250 19.22171 6831 ft 263 kts 181°
2026-04-12 09:37 50.37401 19.22124 7510 ft 269 kts 181°
2026-04-12 09:37 50.35510 19.22103 8236 ft 273 kts 180°
2026-04-12 09:37 50.33587 19.22087 8885 ft 280 kts 181°
2026-04-12 09:38 50.31664 19.21558 9546 ft 285 kts 206°
2026-04-12 09:38 50.30115 19.19646 10227 ft 287 kts 235°
2026-04-12 09:38 50.29284 19.16774 10552 ft 301 kts 263°
2026-04-12 09:38 50.29196 19.13415 10745 ft 320 kts 272°
2026-04-12 09:39 50.29240 19.09865 11177 ft 332 kts 272°
2026-04-12 09:39 50.29276 19.06270 11827 ft 336 kts 272°
2026-04-12 09:39 50.29294 19.02612 12558 ft 338 kts 272°
2026-04-12 09:39 50.29281 18.99154 13304 ft 341 kts 269°
2026-04-12 09:40 50.28657 18.95537 14089 ft 353 kts 246°
2026-04-12 09:40 50.27163 18.92447 14809 ft 364 kts 227°
2026-04-12 09:40 50.25007 18.90244 15456 ft 376 kts 211°
2026-04-12 09:40 50.22623 18.88476 16079 ft 383 kts 210°
2026-04-12 09:41 50.20202 18.86699 16711 ft 387 kts 211°
2026-04-12 09:41 50.17764 18.84875 17363 ft 391 kts 211°
2026-04-12 09:41 50.15310 18.83013 18029 ft 394 kts 212°
2026-04-12 09:41 50.12837 18.81125 18643 ft 398 kts 212°
2026-04-12 09:42 50.10336 18.79217 19181 ft 402 kts 212°
2026-04-12 09:42 50.07815 18.77280 19716 ft 405 kts 214°
2026-04-12 09:42 50.05339 18.75180 20270 ft 406 kts 216°
2026-04-12 09:43 49.97860 18.68663 21884 ft 416 kts 217°
2026-04-12 09:43 49.95331 18.66441 22413 ft 419 kts 217°
2026-04-12 09:43 49.92786 18.64205 22914 ft 423 kts 217°
2026-04-12 09:44 49.90209 18.61969 23420 ft 427 kts 217°
2026-04-12 09:44 49.87590 18.59740 23856 ft 431 kts 217°
2026-04-12 09:44 49.84996 18.57412 24273 ft 427 kts 224°
2026-04-12 09:44 49.82946 18.54264 24705 ft 409 kts 240°
2026-04-12 09:45 49.81199 18.50790 25233 ft 409 kts 240°
2026-04-12 09:45 49.79424 18.47332 25665 ft 412 kts 239°
2026-04-12 09:45 49.77619 18.43860 26048 ft 415 kts 239°
2026-04-12 09:45 49.75795 18.40377 26444 ft 418 kts 239°
2026-04-12 09:46 49.73953 18.36881 26854 ft 420 kts 239°
2026-04-12 09:46 49.72103 18.33381 27263 ft 422 kts 238°
2026-04-12 09:46 49.70249 18.29884 27766 ft 420 kts 238°
2026-04-12 09:46 49.68396 18.26395 28206 ft 420 kts 238°
2026-04-12 09:47 49.66560 18.22935 28523 ft 424 kts 238°
2026-04-12 09:47 49.64659 18.19356 28838 ft 427 kts 238°
2026-04-12 09:47 49.62798 18.15857 29182 ft 429 kts 238°
2026-04-12 09:47 49.60902 18.12298 29542 ft 431 kts 238°
2026-04-12 09:48 49.58997 18.08727 29866 ft 432 kts 238°
2026-04-12 09:48 49.57081 18.05142 30220 ft 433 kts 238°
2026-04-12 09:48 49.55166 18.01568 30632 ft 432 kts 238°
2026-04-12 09:48 49.53331 17.98147 30996 ft 431 kts 238°
2026-04-12 09:49 49.51424 17.94594 31319 ft 431 kts 238°
2026-04-12 09:49 49.49514 17.91037 31595 ft 432 kts 238°
2026-04-12 09:49 49.47597 17.87472 31882 ft 433 kts 238°
2026-04-12 09:49 49.45680 17.83912 32211 ft 433 kts 238°
2026-04-12 09:50 49.43759 17.80350 32540 ft 432 kts 238°
2026-04-12 09:50 49.41838 17.76793 32855 ft 433 kts 238°
2026-04-12 09:50 49.39916 17.73239 33157 ft 433 kts 238°
2026-04-12 09:50 49.37989 17.69680 33493 ft 433 kts 238°
2026-04-12 09:51 49.36063 17.66129 33821 ft 433 kts 238°
2026-04-12 09:51 49.34135 17.62578 34117 ft 433 kts 238°
2026-04-12 09:51 49.32203 17.59023 34377 ft 433 kts 237°
2026-04-12 09:51 49.30271 17.55477 34650 ft 433 kts 237°
2026-04-12 09:52 49.28367 17.51983 34842 ft 434 kts 237°
2026-04-12 09:52 49.26403 17.48384 35050 ft 435 kts 237°
2026-04-12 09:52 49.24490 17.44884 35328 ft 434 kts 236°
2026-04-12 09:52 49.22553 17.41348 35620 ft 433 kts 236°
2026-04-12 09:53 49.20620 17.37822 35869 ft 432 kts 236°
2026-04-12 09:53 49.18690 17.34305 36086 ft 433 kts 236°
2026-04-12 09:53 49.16745 17.30762 36116 ft 436 kts 236°
2026-04-12 09:54 49.12832 17.23653 36172 ft 439 kts 236°
2026-04-12 09:54 49.10864 17.20087 36353 ft 439 kts 235°
2026-04-12 09:54 49.08899 17.16533 36643 ft 437 kts 235°
2026-04-12 09:54 49.06941 17.12997 36957 ft 435 kts 235°
2026-04-12 09:55 49.04994 17.09484 37132 ft 435 kts 235°
2026-04-12 09:55 49.01064 17.02400 37116 ft 437 kts 235°
2026-04-12 09:56 48.97251 16.95552 37126 ft 433 kts 235°
2026-04-12 09:56 48.93368 16.88594 37060 ft 430 kts 235°
2026-04-12 09:56 48.91433 16.85133 36762 ft 429 kts 235°
2026-04-12 09:57 48.89507 16.81694 36502 ft 425 kts 235°
2026-04-12 09:57 48.87597 16.78286 36245 ft 423 kts 236°
2026-04-12 09:57 48.85691 16.74887 36156 ft 422 kts 236°
2026-04-12 09:58 48.81867 16.68076 36127 ft 426 kts 236°
2026-04-12 09:58 48.78053 16.61196 36102 ft 424 kts 240°
2026-04-12 09:59 48.74835 16.53785 36098 ft 420 kts 244°
2026-04-12 09:59 48.71737 16.46282 36106 ft 420 kts 244°
2026-04-12 10:00 48.68636 16.38854 36105 ft 420 kts 243°
2026-04-12 10:00 48.65487 16.31412 36112 ft 420 kts 243°
2026-04-12 10:01 48.62325 16.23992 36106 ft 420 kts 243°
2026-04-12 10:01 48.59157 16.16588 36097 ft 420 kts 242°
2026-04-12 10:02 48.55986 16.09198 36102 ft 419 kts 242°
2026-04-12 10:02 48.52814 16.01824 36098 ft 419 kts 242°
2026-04-12 10:03 48.49706 15.94617 36099 ft 418 kts 242°
2026-04-12 10:03 48.46531 15.87274 36089 ft 418 kts 242°
2026-04-12 10:04 48.43351 15.79939 36097 ft 418 kts 242°
2026-04-12 10:04 48.40165 15.72613 36100 ft 418 kts 242°
2026-04-12 10:05 48.36974 15.65292 36090 ft 419 kts 242°
2026-04-12 10:05 48.33775 15.57972 36094 ft 419 kts 241°
2026-04-12 10:06 48.30564 15.50646 36092 ft 420 kts 241°
2026-04-12 10:06 48.27884 15.44548 36082 ft 421 kts 241°
2026-04-12 10:07 48.24649 15.37204 36077 ft 422 kts 241°
2026-04-12 10:07 48.21407 15.29865 36071 ft 423 kts 241°
2026-04-12 10:08 48.18153 15.22517 36077 ft 423 kts 241°
2026-04-12 10:08 48.14890 15.15171 36060 ft 423 kts 241°
2026-04-12 10:09 48.11624 15.07837 36051 ft 423 kts 240°
2026-04-12 10:09 48.08356 15.00518 36047 ft 423 kts 240°
2026-04-12 10:10 48.05159 14.93379 36043 ft 422 kts 240°
2026-04-12 10:10 48.01911 14.86143 36053 ft 421 kts 240°
2026-04-12 10:11 47.98660 14.78920 36044 ft 420 kts 240°
2026-04-12 10:11 47.95397 14.71691 36042 ft 419 kts 240°
2026-04-12 10:12 47.92140 14.64492 36048 ft 418 kts 240°
2026-04-12 10:12 47.88883 14.57313 36031 ft 418 kts 240°
2026-04-12 10:13 47.85621 14.50140 36028 ft 418 kts 239°
2026-04-12 10:13 47.82355 14.42978 36027 ft 418 kts 239°
2026-04-12 10:14 47.79089 14.35837 36024 ft 417 kts 239°
2026-04-12 10:14 47.75823 14.28714 36023 ft 416 kts 239°
2026-04-12 10:15 47.72559 14.21611 36003 ft 416 kts 239°
2026-04-12 10:15 47.69297 14.14534 36017 ft 415 kts 239°
2026-04-12 10:16 47.66031 14.07464 35999 ft 415 kts 239°
2026-04-12 10:16 47.62763 14.00411 35993 ft 415 kts 239°
2026-04-12 10:17 47.59558 13.93508 36001 ft 415 kts 238°
2026-04-12 10:17 47.56276 13.86461 35995 ft 415 kts 238°
2026-04-12 10:18 47.52990 13.79420 35987 ft 416 kts 238°
2026-04-12 10:18 47.49697 13.72383 35993 ft 416 kts 238°
2026-04-12 10:19 47.46396 13.65349 35986 ft 416 kts 238°
2026-04-12 10:19 47.43091 13.58321 35994 ft 416 kts 238°
2026-04-12 10:20 47.39779 13.51298 35984 ft 416 kts 237°
2026-04-12 10:20 47.36491 13.44342 35984 ft 416 kts 237°
2026-04-12 10:21 47.33171 13.37340 35980 ft 417 kts 237°
2026-04-12 10:21 47.29847 13.30344 35988 ft 416 kts 237°
2026-04-12 10:22 47.26523 13.23365 35981 ft 416 kts 237°
2026-04-12 10:22 47.23195 13.16398 35959 ft 416 kts 237°
2026-04-12 10:23 47.19869 13.09451 35975 ft 415 kts 237°
2026-04-12 10:23 47.16545 13.02526 35980 ft 414 kts 237°
2026-04-12 10:24 47.13298 12.95778 35973 ft 414 kts 237°
2026-04-12 10:24 47.09989 12.88919 35981 ft 413 kts 237°
2026-04-12 10:25 47.06696 12.82111 35658 ft 403 kts 237°
2026-04-12 10:25 47.05088 12.78795 35341 ft 396 kts 237°
2026-04-12 10:25 47.03501 12.75524 34996 ft 392 kts 237°
2026-04-12 10:25 47.01928 12.72286 34609 ft 389 kts 238°
2026-04-12 10:26 47.00366 12.69072 34263 ft 385 kts 238°
2026-04-12 10:26 46.98822 12.65897 33874 ft 383 kts 238°
2026-04-12 10:26 46.97281 12.62732 33458 ft 380 kts 237°
2026-04-12 10:26 46.95753 12.59599 33080 ft 376 kts 237°
2026-04-12 10:27 46.94237 12.56496 32727 ft 373 kts 237°
2026-04-12 10:27 46.92731 12.53415 32360 ft 371 kts 237°
2026-04-12 10:27 46.91254 12.50397 31986 ft 369 kts 237°
2026-04-12 10:27 46.89765 12.47356 31624 ft 366 kts 237°
2026-04-12 10:28 46.88289 12.44345 31286 ft 363 kts 236°
2026-04-12 10:28 46.86824 12.41360 30940 ft 360 kts 236°
2026-04-12 10:28 46.85369 12.38396 30606 ft 358 kts 236°
2026-04-12 10:28 46.83921 12.35450 30269 ft 356 kts 236°
2026-04-12 10:29 46.82477 12.32520 29890 ft 354 kts 236°
2026-04-12 10:29 46.81044 12.29616 29529 ft 350 kts 236°
2026-04-12 10:29 46.79720 12.26656 29149 ft 347 kts 242°
2026-04-12 10:29 46.78607 12.23553 28807 ft 343 kts 244°
2026-04-12 10:30 46.77547 12.20450 28435 ft 341 kts 244°
2026-04-12 10:30 46.76499 12.17367 28032 ft 338 kts 244°
2026-04-12 10:30 46.75454 12.14311 27692 ft 335 kts 244°
2026-04-12 10:30 46.74413 12.11295 27351 ft 332 kts 243°
2026-04-12 10:31 46.73373 12.08300 26990 ft 329 kts 243°
2026-04-12 10:31 46.72341 12.05344 26680 ft 326 kts 243°
2026-04-12 10:31 46.71314 12.02412 26329 ft 324 kts 243°
2026-04-12 10:31 46.70338 11.99631 26012 ft 321 kts 243°
2026-04-12 10:32 46.69323 11.96743 25698 ft 319 kts 242°
2026-04-12 10:32 46.68312 11.93870 25350 ft 318 kts 242°
2026-04-12 10:32 46.67307 11.91016 25049 ft 316 kts 242°
2026-04-12 10:32 46.66306 11.88181 24712 ft 314 kts 242°
2026-04-12 10:33 46.65311 11.85360 24375 ft 312 kts 242°
2026-04-12 10:33 46.64322 11.82560 24072 ft 310 kts 242°
2026-04-12 10:33 46.63338 11.79778 23762 ft 308 kts 242°
2026-04-12 10:33 46.62354 11.77005 23387 ft 308 kts 242°
2026-04-12 10:34 46.61250 11.74351 23034 ft 306 kts 231°
2026-04-12 10:34 46.59838 11.72063 22712 ft 302 kts 223°
2026-04-12 10:34 46.58200 11.70171 22396 ft 301 kts 216°
2026-04-12 10:34 46.56473 11.68469 22073 ft 299 kts 214°
2026-04-12 10:35 46.54755 11.66809 21796 ft 294 kts 214°
2026-04-12 10:35 46.53047 11.65171 21465 ft 296 kts 214°
2026-04-12 10:35 46.51333 11.63518 21162 ft 297 kts 214°
2026-04-12 10:35 46.49581 11.61822 20847 ft 308 kts 214°
2026-04-12 10:36 46.47791 11.60080 20517 ft 312 kts 214°
2026-04-12 10:36 46.45985 11.58327 20189 ft 311 kts 214°
2026-04-12 10:36 46.44193 11.56584 19869 ft 309 kts 214°
2026-04-12 10:36 46.42409 11.54851 19537 ft 308 kts 214°
2026-04-12 10:37 46.40632 11.53123 19211 ft 307 kts 214°
2026-04-12 10:37 46.38861 11.51403 18882 ft 306 kts 214°
2026-04-12 10:37 46.37096 11.49688 18542 ft 305 kts 214°
2026-04-12 10:37 46.35340 11.47983 18222 ft 304 kts 214°
2026-04-12 10:38 46.33590 11.46285 17847 ft 302 kts 214°
2026-04-12 10:38 46.31848 11.44599 17519 ft 300 kts 214°
2026-04-12 10:38 46.30116 11.42924 17179 ft 299 kts 214°
2026-04-12 10:38 46.28295 11.41516 16828 ft 299 kts 197°
2026-04-12 10:39 46.26230 11.41153 16522 ft 301 kts 179°
2026-04-12 10:39 46.24172 11.41750 16195 ft 302 kts 167°
2026-04-12 10:39 46.22160 11.42617 15880 ft 301 kts 166°
2026-04-12 10:39 46.20161 11.43524 15544 ft 301 kts 165°
2026-04-12 10:40 46.18167 11.44431 15241 ft 299 kts 165°
2026-04-12 10:40 46.16186 11.45325 14937 ft 298 kts 166°
2026-04-12 10:40 46.14229 11.46197 14637 ft 298 kts 166°
2026-04-12 10:40 46.12222 11.47086 14327 ft 298 kts 166°
2026-04-12 10:41 46.10237 11.47960 14005 ft 299 kts 166°
2026-04-12 10:41 46.08246 11.48832 13673 ft 299 kts 166°
2026-04-12 10:41 46.06261 11.49703 13345 ft 297 kts 166°
2026-04-12 10:41 46.04288 11.50565 13025 ft 295 kts 166°
2026-04-12 10:42 46.02333 11.51420 12725 ft 292 kts 166°
2026-04-12 10:42 46.00398 11.52265 12426 ft 289 kts 166°
2026-04-12 10:42 45.98482 11.53099 12102 ft 289 kts 165°
2026-04-12 10:42 45.96566 11.53934 11815 ft 287 kts 165°
2026-04-12 10:43 45.92777 11.55582 11218 ft 282 kts 165°
2026-04-12 10:43 45.90907 11.56396 10931 ft 280 kts 165°
2026-04-12 10:43 45.89047 11.57202 10664 ft 279 kts 165°
2026-04-12 10:44 45.87186 11.58004 10340 ft 278 kts 165°
2026-04-12 10:44 45.85332 11.58774 10064 ft 277 kts 166°
2026-04-12 10:44 45.83481 11.59534 9763 ft 275 kts 165°
2026-04-12 10:44 45.81642 11.60289 9446 ft 275 kts 165°
2026-04-12 10:45 45.79801 11.61045 9135 ft 275 kts 165°
2026-04-12 10:45 45.77999 11.61786 8828 ft 274 kts 165°
2026-04-12 10:45 45.76147 11.62549 8542 ft 273 kts 165°
2026-04-12 10:45 45.74352 11.63287 8263 ft 271 kts 165°
2026-04-12 10:46 45.72545 11.64028 7973 ft 270 kts 165°
2026-04-12 10:46 45.70742 11.64764 7691 ft 268 kts 165°
2026-04-12 10:46 45.68949 11.65488 7421 ft 267 kts 165°
2026-04-12 10:46 45.67171 11.66203 7151 ft 265 kts 164°
2026-04-12 10:47 45.65394 11.66918 6863 ft 265 kts 164°
2026-04-12 10:47 45.63637 11.67707 6576 ft 265 kts 154°
2026-04-12 10:47 45.62125 11.69202 6279 ft 264 kts 141°
2026-04-12 10:47 45.60683 11.70836 5971 ft 265 kts 142°
2026-04-12 10:48 45.59224 11.72445 5674 ft 265 kts 142°
2026-04-12 10:48 45.57759 11.74043 5389 ft 265 kts 142°
2026-04-12 10:48 45.56296 11.75631 5179 ft 262 kts 142°
2026-04-12 10:48 45.54983 11.77350 5047 ft 254 kts 123°
2026-04-12 10:49 45.54438 11.79688 4841 ft 251 kts 91°
2026-04-12 10:49 45.54883 11.82066 4638 ft 250 kts 65°
2026-04-12 10:49 45.55614 11.84294 4390 ft 247 kts 68°
2026-04-12 10:49 45.56242 11.86567 4159 ft 245 kts 70°
2026-04-12 10:50 45.56828 11.88811 3913 ft 237 kts 70°
2026-04-12 10:50 45.57391 11.90979 3672 ft 229 kts 70°
2026-04-12 10:50 45.57935 11.93072 3455 ft 221 kts 70°
2026-04-12 10:50 45.58460 11.95081 3279 ft 210 kts 70°
2026-04-12 10:51 45.58950 11.96949 3141 ft 196 kts 70°
2026-04-12 10:51 45.59416 11.98735 2900 ft 187 kts 71°
2026-04-12 10:51 45.59862 12.00437 2659 ft 179 kts 70°
2026-04-12 10:51 45.60294 12.02082 2428 ft 176 kts 70°
2026-04-12 10:52 45.60722 12.03716 2186 ft 175 kts 71°
2026-04-12 10:52 45.61146 12.05334 1958 ft 173 kts 70°
2026-04-12 10:52 45.61569 12.06944 1728 ft 174 kts 70°
2026-04-12 10:52 45.61849 12.08014 1559 ft 172 kts 70°
2026-04-12 10:53 45.62270 12.09616 1347 ft 171 kts 70°
2026-04-12 10:53 45.62675 12.11157 1114 ft 163 kts 71°
2026-04-12 10:53 45.63055 12.12622 888 ft 156 kts 72°
2026-04-12 10:53 45.63433 12.14036 682 ft 151 kts 70°
2026-04-12 10:54 45.63793 12.15400 473 ft 143 kts 71°
2026-04-12 10:54 45.64154 12.16716 351 ft 143 kts 71°
2026-04-12 10:54 45.64501 12.18071 137 ft 148 kts 71°
2026-04-12 10:54 45.64843 12.19409 118 ft 141 kts 71°
2026-04-12 10:55 45.65182 12.20770 660 ft 151 kts 71°
2026-04-12 10:55 45.65369 12.22355 1096 ft 177 kts 104°
2026-04-12 10:55 45.64618 12.23710 1947 ft 182 kts 149°
2026-04-12 10:55 45.63378 12.24216 2584 ft 192 kts 179°
2026-04-12 10:56 45.62070 12.23522 2985 ft 218 kts 218°
2026-04-12 10:56 45.61295 12.21635 3003 ft 227 kts 261°
2026-04-12 10:56 45.61461 12.19400 3009 ft 230 kts 281°
2026-04-12 10:56 45.61710 12.17145 2983 ft 230 kts 278°
2026-04-12 10:57 45.61931 12.14889 3001 ft 231 kts 278°
2026-04-12 10:57 45.62164 12.12604 3005 ft 232 kts 278°
2026-04-12 10:57 45.62270 12.10302 2988 ft 233 kts 262°
2026-04-12 10:57 45.61874 12.08076 2988 ft 231 kts 249°
2026-04-12 10:58 45.61295 12.05960 3007 ft 228 kts 247°
2026-04-12 10:58 45.60706 12.03859 2990 ft 228 kts 247°
2026-04-12 10:58 45.60123 12.01759 2997 ft 228 kts 247°
2026-04-12 10:58 45.59545 11.99658 2986 ft 227 kts 247°
2026-04-12 10:59 45.58980 11.97592 2998 ft 226 kts 247°
2026-04-12 10:59 45.58410 11.95508 3014 ft 225 kts 248°
2026-04-12 10:59 45.57836 11.93398 2993 ft 225 kts 248°
2026-04-12 10:59 45.57278 11.91356 2988 ft 224 kts 247°
2026-04-12 11:00 45.56714 11.89297 2992 ft 223 kts 248°
2026-04-12 11:00 45.56149 11.87231 3011 ft 226 kts 248°
2026-04-12 11:00 45.55507 11.85169 3014 ft 228 kts 233°
2026-04-12 11:00 45.54258 11.83938 3030 ft 219 kts 188°
2026-04-12 11:01 45.52790 11.84202 3017 ft 214 kts 150°
2026-04-12 11:01 45.51607 11.85458 2986 ft 213 kts 127°
2026-04-12 11:01 45.50974 11.87327 2990 ft 211 kts 98°
2026-04-12 11:01 45.51108 11.89382 3006 ft 212 kts 69°
2026-04-12 11:02 45.51995 11.91060 3003 ft 218 kts 38°
2026-04-12 11:02 45.53392 11.91887 2983 ft 221 kts 11°
2026-04-12 11:02 45.54903 11.92166 2985 ft 217 kts 12°
2026-04-12 11:02 45.56394 11.92507 2994 ft 218 kts 12°
2026-04-12 11:03 45.57746 11.93374 2982 ft 213 kts 48°
2026-04-12 11:03 45.58456 11.95182 3007 ft 210 kts 70°
2026-04-12 11:03 45.58994 11.97129 3014 ft 212 kts 70°
2026-04-12 11:03 45.59521 11.99133 2828 ft 217 kts 71°
2026-04-12 11:04 45.60045 12.01134 2546 ft 212 kts 70°
2026-04-12 11:04 45.60552 12.03063 2275 ft 204 kts 71°
2026-04-12 11:04 45.61038 12.04921 2020 ft 196 kts 70°
2026-04-12 11:04 45.61510 12.06719 1767 ft 190 kts 70°
2026-04-12 11:05 45.61966 12.08459 1499 ft 182 kts 70°
2026-04-12 11:05 45.62398 12.10104 1249 ft 171 kts 71°
2026-04-12 11:05 45.62803 12.11632 1071 ft 158 kts 71°
2026-04-12 11:05 45.63183 12.13086 834 ft 155 kts 70°
2026-04-12 11:06 45.63554 12.14498 629 ft 149 kts 70°
2026-04-12 11:06 45.63912 12.15861 432 ft 144 kts 71°
2026-04-12 11:06 45.64276 12.17205 238 ft 146 kts 72°
2026-04-12 11:06 45.64630 12.18560 67 ft 142 kts 70°
2026-04-12 11:07 45.64921 12.19673 57 ft 90 kts 69°
2026-04-12 11:07 45.65083 12.20174 60 ft 21 kts 39°
2026-04-12 11:07 45.65168 12.20245 62 ft 8 kts 25°
2026-04-12 11:07 45.65203 12.20269 57 ft 3 kts 25°
2026-04-12 11:08 45.65221 12.20281 58 ft 3 kts 25°
2026-04-12 11:08 45.65239 12.20293 57 ft 3 kts 25°
2026-04-12 11:08 45.65259 12.20306 62 ft 4 kts 26°
2026-04-12 11:08 45.65292 12.20349 59 ft 9 kts 53°
2026-04-12 11:09 45.65317 12.20436 57 ft 10 kts 70°
2026-04-12 11:09 45.65341 12.20528 58 ft 10 kts 68°
2026-04-12 11:09 45.65385 12.20551 61 ft 2 kts 341°
2026-04-12 11:09 45.65398 12.20545 57 ft 2 kts 341°
2026-04-12 11:10 45.65407 12.20540 55 ft 1 kts 340°
2026-04-12 11:10 45.65409 12.20539 56 ft 0 kts 340°